Вернуться в каталог

STARLINK-37909

АктивенСвязьSSO
NORAD 69566·PAYLOAD·🇺🇸 United States

Запущен Jun 15, 2026 с Vandenberg Space Force Base

Loading…

Ближайшие Пролёты (ближайшие 24 часа)

TLE

СвежийSource: CelesTrak SupGP

Эпоха: Sep 15, 2026, 03:47 UTC

1 69566C 26135W   26258.15812500 -.00060019  00000+0 -18631-2 0  2580
2 69566  97.2838 285.9951 0001223 105.5713 348.3479 15.33469991    19

Отслеживайте STARLINK-37909 в реальном времени с AllMySat

Download on the App Store